Погода в Краснодаре

Погода в Краснодаре : погода сейчас, прогноз погоды и архив. Всё, что Вы хотите узнать о погоде в Краснодаре!

Хотите узнать прогноз погоды в Краснодаре? Тогда Вам сюда: Погода в Краснодаре

Поиск расширенной информации на нашем сайте:

Другие новости

Новости СМИ2

Главная страница сайта

Новости сайта

03.07.2017

Напоминаем, что на нашем специализированном сайте Метеоцентр.Азия вы можете получить высокодетализированные автоматические прогнозы погоды по пунктам России, СНГ и мира в авиационном формате (включающие направление и скорость ветра, видимость, явления погоды, количество и форму облачности, нижнюю и верхнюю границу облачности).

Рекомендуем: маршрутка минск вильнюс аэропорт

Погода в Краснодаре - сегодня

Время (UTC), дата Ветер
(°,м/с) 
Видим.   Явления Облачность Т
(°С)
Тd
(°С)
f(%) Тe
(°С)
Pmin
(гПа)
dP
(гПа)
Po
(мм)
O2
(г/м3)
Тmin Tmax R s Состояние
почвы
09 25.06.17 270 (З) 0500 м    6/0 кучево-дожд. 
[Cb cap]
+26 +13.3 45 +32  1014.2  0.8  758  276           
12 25.06.17 240 (ЮЗ) 10 км    8/5 600 м кучево-дожд., верхняя 
[Cb cap|Ci fib]
+27.3 +13.1 42 +33  1014.5  0.2  758  275           
15 25.06.17 240 (ЮЗ) 10 км    3/1 1000 м средняя 
[Cu med, cong|Ac lent]
+28.3 +15.7 46 +38  1017.3  0.1  760  274    +28.3       
18 25.06.17 240 (ЮЗ) 10 км    3/3 1000 м 
[Sc diur, vesp]
+23.4 +18.4 74 +38  1018.3  761  278           
21 25.06.17 240 (ЮЗ) 10 км    ясно 
+20.4 +16.6 79 +32  1016.2  0.5  759  281           
00 26.06.17 140 (ЮВ) н/о    н/о 
+17.3 +16.1 93 +29  1016.1  0.1  759  284           
03 26.06.17 тихо ()   2000 м  дымка  ясно 
+18.2 +17 93 +30  1018.4  -0.2  761  284  +17.1         
06 26.06.17 тихо ()   10 км    ясно 
+26.3 +16.6 55 +37  1018.1  -0.2  761  276           
09 26.06.17 090 (В) 10 км    3/3 1000 м 
[Cu med, cong]
+27.4 +17.2 54 +40  1015.9  -2.2  759  274           
12 26.06.17 080 (В) 10 км    3/3 1000 м 
[Cu med, cong]
+29.5 +17.2 48 +42  1014.6  -1.2  758  272           
15 26.06.17 060 (СВ) н/о    н/о 
+29.1 +14.2 40 +36  1012.3  -1.4  757  273    +30.1  0.3     
18 26.06.17 040 (СВ) 10 км    ясно 
+26.4 +16.8 56 +38  1012.8  -0.5  757  275           
21 26.06.17 080 (В) 10 км    ясно 
+13.5 +17 100 +27  1012.2  -0.6  757  287           
00 27.06.17 030 (СВ) н/о    н/о 
+19.6 +15.7 78 +31  1010.8  -0.5  755  281           
03 27.06.17 090 (В) 10 км    ясно 
+19.5 +16.2 81 +32  1011.9  0.3  756  281  +19.5         
06 27.06.17 040 (СВ) 10 км    6/0 верхняя 
[Ci]
+26 +17.4 59 +39  1010.4  -0.4  755  274           
09 27.06.17 190 (Ю) 10 км    4/1 1000 м верхняя 
[Cu hum|Ci fib]
+28.9 +20 59 +47  1010  -0.3  755  270           
12 27.06.17 080 (В) 10 км    3/1 1000 м верхняя 
[Cu hum|Ci fib]
+32.2 +18.1 43 +47  1010  -0.8  755  268           
15 27.06.17 040 (СВ) 10 км    4/3 1000 м верхняя 
[Cu med, cong|Ci fib]
+32 +19.7 48 +50  1009.5  -0.5  755  268    +34.3       
18 27.06.17 100 (В) 10 км    3/3 1000 м 
[Sc diur, vesp]
+28.3 +18.7 56 +44  1010.2  0.7  755  271           
21 27.06.17 230 (ЮЗ) 10 км    3/3 1000 м 
[Sc]
+23.3 +17.4 69 +36  1009.6  0.2  755  276           
00 28.06.17 230 (ЮЗ) 10 км    6/6 1000 м 
[Sc]
+22.8 +17.9 74 +37  1010  0.4  755  277           
03 28.06.17 240 (ЮЗ) 10 км    8/5 1000 м средняя 
[Sc|Ac trans]
+23.2 +19.6 80 +41  1011.6  0.3  756  276  +23         
06 28.06.17 260 (З) 10 км    8/8 1000 м средняя 
[Cu hum|Ac lent]
+26.7 +21 71 +47  1011.8  0.2  756  272           
09 28.06.17 300 (СЗ) 10 км    8/6 1000 м средняя 
[Sc diur, vesp|Ac trans]
+30 +17.3 47 +43  1010.5  -0.3  755  270           
Время (UTC), дата Ветер
(°,м/с) 
Видим.   Явления Облачность Т
(°С)
Тd
(°С)
f(%) Тe
(°С)
Pmin
(гПа)
dP
(гПа)
Po
(мм)
O2
(г/м3)
Тmin Tmax R s Состояние
почвы

Для получения пояснительной информации подведите курсор к названию столбца.

ПОГОДА в Краснодаре - архив

Всё, что Вы хотите узнать о погоде в Краснодаре - удобно и подробно!

Выберите нужную дату (начиная с 1 января 2015* года) и нажмите кнопку "Найти".
Будут отображены архивные сводки погоды по пункту Краснодар, начиная с указанной даты.


Отображать данные в формате CSV (для использования в таблицах Excel)


Внимание! Наш архив погоды предназначен исключительно для личного некоммерческого использования в познавательных целях. Если Вам необходимы официальные справки о состоянии погоды (для производственных, юридических, коммерческих и т.п. целей), обращайтесь в органы Росгидромета.

*Примечание: данная дата относится к архиву по метеостанциям СССР (Россия, СНГ, Балтия).
Архив по метеостанциям Зарубежной Европы и Азии (кроме Китая) хранится 10 дней, по другим регионам земного шара (Китай, Африка, Америка, Австралия, Океания) - 1 день.

Краснодар - район местоположения метеостанции


Название, широта, долгота, высота метеостанции:
Краснодар (Круглик) 45.03°ш. 39.15°д. 34 м над ур. моря [Российская Федерация]

Дополнительная информация

В oтличие oт бoльшинства пoгoдных сайтoв мы публикуем пoдрoбную метеoинфoрмацию в детальнoм прoфессиoнальнoм фoрмате.

Характеристики температуры и влажнoсти вoздуха измеряются на высoте 2 м в тени вдали oт зданий и деревьев.
Скoрoсть ветра измеряется на высoте 10 м (на урoвне рoста челoвека скoрoсть ветра ниже в 1.5-2 раза). Если метеoстанция нахoдится в гoрoде или в лесу, тo скoрoсть ветра занижена на 2-4 м/с пo сравнению с oткрытым местoм. Скoрoсть ветра над акватoриями крупных рек и oзёр, а также на вершинах хoлмoв на 2-5 м/с выше, чем в oбычных услoвиях.
Атмoсфернoе давление в разных тoчках местнoсти мoжет значительнo oтличаться oт давления на метеoстанции, в зависимoсти oт услoвий рельефа (при пoдъёме на 10 м давление пoнижается примернo на 1 мм рт.ст.).